| time (UTC) | temp F | wind direction | speed MPH | gust MPH | rain 1hr in | rain 24hr in | rain mn in | humidity % | barometer mb |
| 20260502163011 | 52 | 285 | 2.0 | 7.0 | 0.00 | 0.00 | 0.00 | 92 | 1017.7 |
| 20260502161510 | 52 | 294 | 3.0 | 6.0 | 0.00 | 0.00 | 0.00 | 93 | 1017.6 |
| 20260502151508 | 50 | 241 | 0.0 | 3.0 | 0.00 | 0.00 | 0.00 | 94 | 1017.5 |
| 20260502123058 | 50 | 196 | 0.0 | 1.0 | 0.00 | 0.00 | 0.00 | 91 | 1017.4 |
| 20260502121557 | 50 | 195 | 0.0 | 3.0 | 0.00 | 0.00 | 0.00 | 91 | 1017.5 |
| 20260502114556 | 50 | 195 | 0.0 | 3.0 | 0.00 | 0.00 | 0.00 | 91 | 1017.5 |
| 20260502113108 | 50 | 195 | 1.0 | 4.0 | 0.00 | 0.00 | 0.00 | 90 | 1017.6 |
| 20260502111557 | 51 | 274 | 0.0 | 2.0 | 0.00 | 0.00 | 0.00 | 90 | 1017.6 |
| 20260502110053 | 51 | 274 | 1.0 | 4.0 | 0.00 | 0.00 | 0.00 | 90 | 1017.7 |
| 20260502104603 | 51 | 179 | 3.0 | 9.0 | 0.00 | 0.00 | 0.00 | 90 | 1018.2 |
| 20260502103050 | 51 | 201 | 5.0 | 10.0 | 0.00 | 0.00 | 0.00 | 90 | 1018.1 |
| 20260502101646 | 51 | 238 | 3.0 | 8.0 | 0.00 | 0.00 | 0.00 | 90 | 1017.4 |
| 20260502071519 | 55 | 192 | 3.0 | 6.0 | 0.00 | 0.00 | 0.00 | 82 | 1017.2 |
| 20260502070030 | 56 | 240 | 3.0 | 7.0 | 0.00 | 0.00 | 0.00 | 81 | 1017.1 |
| 20260502064517 | 57 | 217 | 2.0 | 7.0 | 0.00 | 0.00 | 0.00 | 80 | 1017.0 |
| 20260502063020 | 57 | 205 | 4.0 | 9.0 | 0.00 | 0.00 | 0.00 | 79 | 1017.0 |
| 20260502061516 | 58 | 277 | 3.0 | 10.0 | 0.00 | 0.00 | 0.00 | 79 | 1016.9 |
| 20260502060027 | 58 | 250 | 4.0 | 10.0 | 0.00 | 0.00 | 0.00 | 78 | 1016.8 |
| 20260502054517 | 58 | 262 | 5.0 | 12.0 | 0.00 | 0.00 | 0.00 | 77 | 1016.7 |
| 20260502053012 | 58 | 271 | 5.0 | 13.0 | 0.00 | 0.00 | 0.00 | 75 | 1016.5 |
| 20260502051512 | 58 | 12 | 1.0 | 3.0 | 0.00 | 0.00 | 0.00 | 72 | 1016.5 |
| 20260502050018 | 58 | 12 | 0.0 | 2.0 | 0.00 | 0.00 | 0.00 | 71 | 1016.3 |
| 20260502044515 | 59 | 12 | 1.0 | 2.0 | 0.00 | 0.00 | 0.00 | 71 | 1016.2 |
| 20260502043010 | 59 | 12 | 0.0 | 3.0 | 0.00 | 0.00 | 0.00 | 70 | 1016.0 |
| 20260502041521 | 59 | 12 | 1.0 | 2.0 | 0.00 | 0.00 | 0.00 | 69 | 1016.0 |
| 20260502040016 | 60 | 12 | 0.0 | 2.0 | 0.00 | 0.00 | 0.00 | 68 | 1015.8 |
| 20260502034508 | 60 | 12 | 2.0 | 4.0 | 0.00 | 0.00 | 0.00 | 68 | 1015.6 |
| 20260502033015 | 61 | 12 | 2.0 | 5.0 | 0.00 | 0.00 | 0.00 | 67 | 1015.5 |
| 20260502031506 | 62 | 12 | 0.0 | 3.0 | 0.00 | 0.00 | 0.00 | 66 | 1015.2 |
| 20260502030006 | 63 | 12 | 0.0 | 5.0 | 0.00 | 0.00 | 0.00 | 64 | 1015.2 |
| 20260502024506 | 64 | 12 | 2.0 | 4.0 | 0.00 | 0.00 | 0.00 | 62 | 1015.0 |
| 20260502023015 | 64 | 12 | 0.0 | 4.0 | 0.00 | 0.00 | 0.00 | 61 | 1014.9 |
| 20260502021505 | 65 | 12 | 2.0 | 9.0 | 0.00 | 0.00 | 0.00 | 59 | 1014.9 |
| 20260502020004 | 66 | 22 | 1.0 | 11.0 | 0.00 | 0.00 | 0.00 | 58 | 1014.8 |
| 20260502014502 | 66 | 53 | 2.0 | 6.0 | 0.00 | 0.00 | 0.00 | 58 | 1014.9 |
| 20260502013003 | 68 | 55 | 1.0 | 5.0 | 0.00 | 0.00 | 0.00 | 57 | 1014.8 |
| 20260502011502 | 68 | 56 | 1.0 | 4.0 | 0.00 | 0.00 | 0.00 | 57 | 1014.9 |
| 20260502004600 | 69 | 57 | 3.0 | 6.0 | 0.00 | 0.00 | 0.00 | 56 | 1015.0 |
| 20260502003101 | 70 | 53 | 3.0 | 7.0 | 0.00 | 0.00 | 0.00 | 54 | 1014.9 |
| 20260502001605 | 70 | 59 | 2.0 | 5.0 | 0.00 | 0.00 | 0.00 | 54 | 1015.0 |
| 20260502000108 | 70 | 59 | 2.0 | 5.0 | 0.00 | 0.00 | 0.00 | 57 | 1015.0 |
| 20260501234557 | 69 | 59 | 1.0 | 5.0 | 0.00 | 0.00 | 0.00 | 58 | 1014.9 |
| 20260501233117 | 70 | 59 | 2.0 | 6.0 | 0.00 | 0.00 | 0.00 | 57 | 1015.0 |
| 20260501231624 | 70 | 59 | 2.0 | 7.0 | 0.00 | 0.00 | 0.00 | 59 | 1015.0 |
| 20260501230116 | 72 | 54 | 3.0 | 6.0 | 0.00 | 0.00 | 0.00 | 55 | 1015.4 |
| 20260501224556 | 71 | 46 | 3.0 | 5.0 | 0.00 | 0.00 | 0.00 | 56 | 1015.4 |
| 20260501223053 | 70 | 46 | 1.0 | 4.0 | 0.00 | 0.00 | 0.00 | 53 | 1015.5 |
| 20260501221544 | 70 | 46 | 2.0 | 5.0 | 0.00 | 0.00 | 0.00 | 55 | 1015.7 |
| 20260501220042 | 69 | 46 | 1.0 | 5.0 | 0.00 | 0.00 | 0.00 | 58 | 1015.9 |
| 20260501214538 | 69 | 46 | 2.0 | 5.0 | 0.00 | 0.00 | 0.00 | 56 | 1016.0 |
| 20260501213036 | 68 | 46 | 2.0 | 5.0 | 0.00 | 0.00 | 0.00 | 59 | 1016.1 |
| 20260501211537 | 68 | 46 | 3.0 | 6.0 | 0.00 | 0.00 | 0.00 | 60 | 1016.1 |
| 20260501210037 | 67 | 46 | 3.0 | 5.0 | 0.00 | 0.00 | 0.00 | 60 | 1016.2 |
| 20260501204528 | 66 | 47 | 2.0 | 5.0 | 0.00 | 0.00 | 0.00 | 64 | 1016.2 |
| 20260501203027 | 65 | 47 | 2.0 | 6.0 | 0.00 | 0.00 | 0.00 | 63 | 1016.4 |
| 20260501201523 | 65 | 47 | 1.0 | 5.0 | 0.00 | 0.00 | 0.00 | 66 | 1016.5 |
| 20260501200022 | 65 | 51 | 3.0 | 7.0 | 0.00 | 0.00 | 0.00 | 64 | 1016.5 |
| 20260501194523 | 65 | 49 | 3.0 | 7.0 | 0.00 | 0.00 | 0.00 | 63 | 1016.7 |
| 20260501193020 | 65 | 58 | 5.0 | 10.0 | 0.00 | 0.00 | 0.00 | 64 | 1016.7 |
| 20260501191515 | 63 | 50 | 3.0 | 6.0 | 0.00 | 0.00 | 0.00 | 67 | 1016.7 |
| 20260501190011 | 62 | 53 | 1.0 | 5.0 | 0.00 | 0.00 | 0.00 | 68 | 1016.9 |
| 20260501184507 | 61 | 53 | 1.0 | 5.0 | 0.00 | 0.00 | 0.00 | 71 | 1017.0 |
| 20260501183004 | 60 | 54 | 1.0 | 4.0 | 0.00 | 0.00 | 0.00 | 76 | 1017.1 |
| 20260501181601 | 59 | 51 | 2.0 | 6.0 | 0.00 | 0.00 | 0.00 | 78 | 1017.1 |
| 20260501180100 | 59 | 49 | 2.0 | 6.0 | 0.00 | 0.00 | 0.00 | 80 | 1017.3 |
| 20260501174600 | 59 | 50 | 3.0 | 9.0 | 0.00 | 0.00 | 0.00 | 76 | 1017.3 |
| 20260501173110 | 59 | 51 | 4.0 | 7.0 | 0.00 | 0.00 | 0.00 | 76 | 1017.4 |
| 20260501171603 | 58 | 46 | 3.0 | 7.0 | 0.00 | 0.00 | 0.00 | 77 | 1017.4 |
| 20260501170054 | 58 | 38 | 3.0 | 6.0 | 0.00 | 0.00 | 0.00 | 78 | 1017.6 |
| 20260501164615 | 57 | 36 | 2.0 | 6.0 | 0.00 | 0.00 | 0.00 | 79 | 1017.7 |